Seward, AK

7:50 AM AKDT on October 17, 2017 (GMT -0800)
Seward

Weather History for PAWD - July, 2013

Change the Weather History Date:

Tuesday, July 9, 2013

  Actual Average Record
Temperature  
Mean Temperature 54 °F -  
Max Temperature 61 °F 63 °F 81 °F (1971)
Min Temperature 48 °F 49 °F 39 °F (2010)
Degree Days  
Heating Degree Days 11    
Growing Degree Days 4 (Base 50)    
Moisture  
Dew Point 48 °F    
Average Humidity 82    
Maximum Humidity 96    
Minimum Humidity 64    
Precipitation  
Precipitation 0.00 in - - ()
Sea Level Pressure  
Sea Level Pressure 29.96 in    
Wind  
Wind Speed 2 mph (South)    
Max Wind Speed 10 mph    
Max Gust Speed 16 mph    
Visibility 10 miles    
Events      
Averages and records for this station are not official NWS values.
T = Trace of Precipitation, MM = Missing Value Source: NWS Daily Summary

Daily Weather History Graph

Daily Weather History Graph

Search for Another Location

Airport or City:

Trip Planner

Search our weather history database for the weather conditions in past years. The results will help you decide how hot, cold, wet, or windy it might be!

Date:

Astronomy

Jul. 09, 2013 Rise Set
Actual Time 4:50 AM AKDT 11:14 PM AKDT
Civil Twilight 3:22 AM AKDT 12:41 AM AKDT
Nautical Twilight Sun does not rise Sun does not rise
Astronomical Twilight Sun does not rise Sun does not rise
Moon 7:10 AM AKDT (7/9) 11:01 PM AKDT (7/9)
Length of Visible Light 21h 19m
Length of Day
18h 24m
New Moon, 2% of the Moon is Illuminated
Jul 9
New Moon
Jul 15
First Quarter
Jul 22
Full
Jul 29
Last Quarter
Aug 6
New

Hourly Weather History & Observations

Time (AKDT) Temp. Dew Point Humidity Pressure Visibility Wind Dir Wind Speed Gust Speed Precip Events Conditions
12:53 AM 48.0 °F 46.0 °F 93% 29.87 in 10.0 mi Calm Calm - N/A   Partly Cloudy
1:53 AM 48.9 °F 46.9 °F 93% 29.88 in 10.0 mi Calm Calm - N/A   Overcast
2:53 AM 48.0 °F 46.9 °F 96% 29.90 in 10.0 mi Calm Calm - N/A   Overcast
3:27 AM 48.2 °F 46.4 °F 93% 29.90 in 10.0 mi Calm Calm - N/A   Overcast
3:53 AM 48.0 °F 46.9 °F 96% 29.91 in 10.0 mi Calm Calm - N/A   Overcast
4:53 AM 48.9 °F 46.9 °F 93% 29.91 in 10.0 mi Calm Calm - N/A   Overcast
5:39 AM 48.2 °F 46.4 °F 93% 29.91 in 10.0 mi Calm Calm - N/A   Overcast
5:53 AM 48.9 °F 46.9 °F 93% 29.92 in 10.0 mi Calm Calm - N/A   Overcast
6:53 AM 52.0 °F 48.9 °F 89% 29.92 in 10.0 mi Calm Calm - N/A   Overcast
7:53 AM 53.1 °F 48.0 °F 83% 29.93 in 10.0 mi ESE 3.5 mph - N/A   Overcast
8:10 AM 53.6 °F 48.2 °F 82% 29.93 in 10.0 mi Calm Calm - N/A   Mostly Cloudy
8:53 AM 53.1 °F 48.9 °F 86% 29.94 in 10.0 mi SSW 3.5 mph - N/A   Mostly Cloudy
9:53 AM 54.0 °F 46.9 °F 77% 29.96 in 10.0 mi South 4.6 mph - N/A   Mostly Cloudy
10:53 AM 55.9 °F 46.9 °F 72% 29.96 in 10.0 mi South 4.6 mph - N/A   Clear
11:53 AM 57.0 °F 50.0 °F 77% 29.97 in 10.0 mi South 8.1 mph - N/A   Mostly Cloudy
12:53 PM 59.0 °F 50.0 °F 72% 29.98 in 10.0 mi SSE 9.2 mph - N/A   Mostly Cloudy
1:53 PM 57.9 °F 48.9 °F 72% 29.99 in 10.0 mi South 3.5 mph - N/A   Overcast
2:53 PM 60.1 °F 51.1 °F 72% 29.99 in 10.0 mi SSE 8.1 mph - N/A   Mostly Cloudy
3:53 PM 57.9 °F 50.0 °F 75% 30.00 in 10.0 mi South 10.4 mph - N/A   Overcast
4:53 PM 60.1 °F 50.0 °F 69% 30.01 in 10.0 mi South 10.4 mph 16.1 mph N/A   Overcast
5:53 PM 60.1 °F 48.0 °F 64% 30.01 in 10.0 mi South 6.9 mph - N/A   Overcast
6:53 PM 60.1 °F 48.9 °F 67% 30.01 in 10.0 mi South 3.5 mph - N/A   Mostly Cloudy
7:53 PM 60.1 °F 50.0 °F 69% 30.02 in 10.0 mi SSE 5.8 mph - N/A   Overcast
8:53 PM 57.9 °F 51.1 °F 78% 30.01 in 10.0 mi Calm Calm - N/A   Scattered Clouds
9:53 PM 55.9 °F 51.1 °F 84% 30.02 in 9.0 mi Calm Calm - N/A   Clear
10:53 PM 53.1 °F 50.0 °F 89% 30.03 in 10.0 mi Calm Calm - N/A   Clear
11:53 PM 50.0 °F 46.9 °F 89% 30.04 in 10.0 mi North 4.6 mph - N/A   Clear